Flag for Germany Weather past 2 weeks in Augsburg, Bavaria, Germany

Now
49 °F

Overcast.


Feels Like: 49 °F
Forecast: 54 / 75 °F
Wind: 1 mph from West

Location: Augsburg

Current Time: Sep 18, 2014 at 2:42:41 AM

Latest Report: Sep 18, 2014 at 2:00 AM


Visibility: 0 mi

Pressure: 29.93 "Hg

Humidity: 100%

Dew point: 49 °F

Location of AugsburgLocation

Historic Weather in Augsburg — Graph

°F

Augsburg temperature yesterday

Maximum temperature yesterday: 70 °F (at 6:00 PM)
Minimum temperature yesterday: 46 °F (at 3:00 AM)
Average temperature yesterday: 56 °F

Past Weeks' High & Low Weather Summary

 TemperatureHumidityPressure
High77 °F (Sep 7, 4:00 PM)100% (Sep 5, 2:00 AM)30.15 "Hg (Sep 5, 2:00 AM)
Low46 °F (Sep 17, 3:00 AM)46% (Sep 7, 3:00 PM)29.85 "Hg (Sep 6, 6:00 PM)
Average59 °F89%30.01 "Hg
* Reported Sep 3 1:00 AM — Sep 18 1:00 AM, Augsburg, Weather by CustomWeather, © 2014

Note: Actual official high and low records may vary slightly from our data, if they occured in-between our weather recording intervals... More about our weather records

Advertising

Augsburg weather history for previous 24 hours

 ConditionsComfort  
Time TempWeatherWind HumidityBarometerVisibility
1:00 AM
Sep 18
51 °FOvercast.1 mph100%29.93 "Hg4 mi
12:00 AM51 °FOvercast.1 mph99%29.93 "Hg0 mi
10:00 PM
Sep 17
57 °FPassing clouds.1 mph97%29.91 "Hg10 mi
9:00 PM56 °FOvercast.2 mph98%29.91 "Hg6 mi
8:00 PM59 °FPassing clouds.1 mph97%29.90 "Hg6 mi
7:00 PM67 °FPassing clouds.2 mph76%29.87 "Hg17 mi
6:00 PM70 °FSunny.2 mph69%29.86 "Hg17 mi
5:00 PM69 °FSunny.3 mph74%29.87 "Hg9 mi
4:00 PM67 °FSunny.3 mph74%29.88 "Hg11 mi
3:00 PM62 °FLight fog.1 mph84%29.92 "Hg7 mi
2:00 PM61 °FLow clouds.2 mph88%29.94 "Hg6 mi
1:00 PM59 °FLow clouds.2 mph93%29.95 "Hg5 mi
12:00 PM57 °FFog.2 mph98%29.96 "Hg3 mi
10:00 AM54 °FLow clouds.1 mph100%29.97 "Hg1 mi
9:00 AM53 °FLow clouds.2 mph100%29.97 "Hg1 mi
8:00 AM53 °FLow clouds.1 mph100%29.97 "Hg0 mi
7:00 AM53 °FLow clouds.1 mph100%29.98 "Hg0 mi
6:00 AM52 °FLow clouds.1 mph100%29.97 "Hg0 mi
4:00 AM48 °FPassing clouds.1 mph100%29.99 "Hg0 mi
3:00 AM46 °FClear.1 mph100%30.00 "Hg0 mi
2:00 AM47 °FClear.1 mph100%30.01 "Hg0 mi
Weather by CustomWeather, © 2014

See weather overviewHow to use our weather pages